CW4746 Weather Reports


time (UTC)temp
F
wind
direction
speed
knots
gust
knots
rain 1hr
in
rain 24hr
in
rain mn
in
humidity
%
barometer
mb
20260906190045 86 47 1.7 0.0 0.00 0.00 0.00 66 1012.7
20260906184509 84 316 1.7 0.0 0.00 0.00 0.00 70 1013.0
20260906183012 83 350 0.9 0.0 0.00 0.00 0.00 74 1013.0
20260906181513 82 332 1.7 0.0 0.00 0.00 0.00 74 1013.1
20260906180055 81 355 0.9 0.0 0.00 0.00 0.00 74 1013.2
20260906174546 81 347 0.0 0.0 0.00 0.00 0.00 75 1013.5
20260906173054 81 49 1.7 0.0 0.00 0.00 0.00 75 1013.4
20260906170008 80 32 0.9 0.0 0.00 0.00 0.00 75 1013.6
20260906164518 80 80 1.7 0.0 0.00 0.00 0.00 76 1014.1
20260906163028 80 55 0.9 0.0 0.00 0.00 0.00 77 1014.1
20260906161536 80 360 0.0 0.0 0.00 0.00 0.00 78 1014.1
20260906160104 79 258 0.9 0.0 0.00 0.00 0.00 78 1014.1
20260906154530 79 250 0.9 0.0 0.00 0.00 0.00 80 1014.2
20260906153041 78 336 0.0 0.0 0.00 0.00 0.00 80 1014.3
20260906151600 78 348 0.0 0.0 0.00 0.00 0.00 80 1014.0
20260906150013 78 298 1.7 0.0 0.00 0.00 0.00 80 1013.9
20260906144536 77 304 1.7 0.0 0.00 0.00 0.00 81 1013.9
20260906143051 77 271 2.6 0.0 0.00 0.00 0.00 82 1014.1
20260906141607 76 274 0.9 0.0 0.00 0.00 0.00 83 1013.9
20260906140007 75 270 2.6 0.0 0.00 0.00 0.00 83 1014.0
20260906134516 74 214 1.7 0.0 0.00 0.00 0.00 84 1014.0
20260906133024 74 218 2.6 0.0 0.00 0.00 0.00 84 1014.1
20260906131540 73 184 2.6 0.0 0.00 0.00 0.00 83 1014.0
20260906130119 73 263 5.2 0.0 0.00 0.00 0.00 82 1014.2
20260906124535 72 115 2.6 0.0 0.00 0.00 0.00 82 1013.0
20260906123001 72 117 1.7 0.0 0.00 0.00 0.00 82 1012.8
20260906121542 72 105 2.6 0.0 0.00 0.00 0.00 82 1012.7
20260906120034 72 102 2.6 0.0 0.00 0.00 0.00 82 1012.6
20260906114508 72 82 1.7 0.0 0.00 0.00 0.00 82 1012.5
20260906113011 72 110 1.7 0.0 0.00 0.00 0.00 82 1012.3
20260906111538 72 111 1.7 0.0 0.00 0.00 0.00 82 1012.1
20260906110046 72 117 2.6 0.0 0.00 0.00 0.00 82 1012.1
20260906104522 72 104 1.7 0.0 0.00 0.00 0.00 82 1012.2
20260906103059 72 102 1.7 0.0 0.00 0.00 0.00 82 1012.2
20260906101533 72 115 0.9 0.0 0.00 0.00 0.00 82 1012.2
20260906094526 72 90 0.9 0.0 0.00 0.00 0.00 82 1012.0
20260906093048 72 68 0.9 0.0 0.00 0.00 0.00 82 1012.1
20260906091600 72 88 0.0 0.0 0.00 0.00 0.00 83 1012.1
20260906090110 72 74 0.0 0.0 0.00 0.00 0.00 83 1012.0
20260906084525 72 74 0.0 0.0 0.00 0.00 0.00 83 1012.1
20260906083059 72 57 0.9 0.0 0.00 0.00 0.00 83 1012.0
20260906081530 72 92 0.9 0.0 0.00 0.00 0.00 83 1012.1
20260906080013 72 82 0.9 0.0 0.00 0.00 0.00 83 1012.1
20260906074531 73 61 1.7 0.0 0.00 0.00 0.00 84 1011.9
20260906073048 73 71 0.9 0.0 0.00 0.00 0.00 84 1011.9
20260906071603 73 89 1.7 0.0 0.00 0.00 0.00 84 1011.8
20260906070032 73 93 1.7 0.0 0.00 0.00 0.00 83 1011.8
20260906064559 73 74 1.7 0.0 0.00 0.00 0.00 84 1011.8
20260906063031 73 90 2.6 0.0 0.00 0.00 0.00 84 1011.8
20260906061604 74 74 1.7 0.0 0.00 0.00 0.00 83 1011.9
20260906060035 74 92 2.6 0.0 0.00 0.00 0.00 83 1011.9
20260906054606 74 92 2.6 0.0 0.00 0.00 0.00 83 1012.0
20260906053006 74 85 2.6 0.0 0.00 0.00 0.00 83 1012.0
20260906051612 75 88 2.6 0.0 0.00 0.00 0.00 83 1012.0
20260906050026 75 92 1.7 0.0 0.00 0.00 0.00 83 1011.9
20260906044607 75 87 2.6 0.0 0.00 0.00 0.00 83 1011.8
20260906043018 76 90 1.7 0.0 0.00 0.00 0.00 83 1011.9
20260906041535 76 98 1.7 0.0 0.00 0.00 0.00 83 1011.9
20260906040140 76 81 2.6 0.0 0.00 0.00 0.00 83 1011.9
20260906034553 76 75 1.7 0.0 0.00 0.00 0.00 83 1011.8
20260906033108 77 73 1.7 0.0 0.00 0.00 0.00 82 1011.7
20260906031542 77 74 1.7 0.0 0.00 0.00 0.00 82 1011.5
20260906030020 77 85 1.7 0.0 0.00 0.00 0.00 81 1011.3
20260906024605 78 71 1.7 0.0 0.00 0.00 0.00 81 1011.1
20260906023002 78 78 2.6 0.0 0.00 0.00 0.00 80 1010.7
20260906021533 79 89 1.7 0.0 0.00 0.00 0.00 79 1010.4
20260906020004 79 78 1.7 0.0 0.00 0.00 0.00 78 1010.3
20260906014533 80 86 1.7 0.0 0.00 0.00 0.00 77 1010.1
20260906013021 81 78 1.7 0.0 0.00 0.00 0.00 76 1009.9
20260906011555 82 86 1.7 0.0 0.00 0.00 0.00 75 1009.7
20260906010045 84 86 1.7 0.0 0.00 0.00 0.00 71 1009.6
20260906004513 85 105 2.6 0.0 0.00 0.00 0.00 68 1009.4
20260906003056 87 134 2.6 0.0 0.00 0.00 0.00 65 1009.5
20260906001534 89 140 1.7 0.0 0.00 0.00 0.00 63 1009.7
20260906000015 90 122 3.5 0.0 0.00 0.00 0.00 61 1009.8
20260905234608 91 97 3.5 0.0 0.00 0.00 0.00 58 1009.8
20260905233025 92 114 4.3 0.0 0.00 0.00 0.00 59 1009.6
20260905231554 93 114 4.3 0.0 0.00 0.00 0.00 58 1009.6
20260905230019 93 142 5.2 0.0 0.00 0.00 0.00 56 1009.6
20260905224615 94 95 5.2 0.0 0.00 0.00 0.00 56 1009.6
20260905223027 94 144 6.1 0.0 0.00 0.00 0.00 54 1009.6
20260905221603 94 144 5.2 0.0 0.00 0.00 0.00 55 1009.6
20260905220021 92 97 5.2 0.0 0.00 0.00 0.00 58 1009.6
20260905214506 92 136 6.1 0.0 0.00 0.00 0.00 56 1009.6
20260905213052 93 115 6.1 0.0 0.00 0.00 0.00 57 1009.7
20260905211540 94 109 7.0 0.0 0.00 0.00 0.00 54 1009.8
20260905204515 94 88 6.1 0.0 0.00 0.00 0.00 58 1010.4
20260905203046 94 347 5.2 0.0 0.00 0.00 0.00 63 1010.6
20260905201513 93 340 6.1 0.0 0.00 0.00 0.00 63 1011.0
20260905200049 94 10 5.2 0.0 0.00 0.00 0.00 62 1011.2
20260905194519 93 55 7.0 0.0 0.00 0.00 0.00 62 1011.7
20260905193051 94 36 5.2 0.0 0.00 0.00 0.00 60 1012.0
20260905191525 93 50 5.2 0.0 0.00 0.00 0.00 61 1012.2